GW2728 Weather Reports


time (UTC)temp
C
wind
direction
speed
KPH
gust
KPH
rain 1hr
cm
rain 24hr
cm
rain mn
cm
humidity
%
barometer
mb
20260506134537 8 272 1.6 8.0 0.03 3.30 0.71 85 1010.9
20260506133037 8 4 1.6 9.7 0.03 3.30 0.71 88 1010.8
20260506131537 7 271 1.6 9.7 0.03 3.30 0.71 90 1010.6
20260506130037 7 306 3.2 8.0 0.00 3.28 0.69 93 1010.1
20260506124536 7 331 1.6 4.8 0.00 3.28 0.69 94 1009.9
20260506123114 7 0 0.0 3.2 0.00 3.28 0.69 95 1009.9
20260506121538 7 336 0.0 4.8 0.00 3.28 0.69 95 1009.8
20260506120042 7 20 0.0 1.6 0.00 3.28 0.69 95 1009.6
20260506114534 6 0 0.0 1.6 0.00 3.28 0.69 95 1009.7
20260506113038 6 0 0.0 0.0 0.00 3.28 0.69 95 1009.3
20260506111538 6 0 0.0 0.0 0.00 3.28 0.69 95 1009.0
20260506110037 6 0 0.0 6.4 0.00 3.28 0.69 95 1008.6
20260506104539 6 0 0.0 4.8 0.00 3.28 0.69 95 1008.4
20260506103047 6 335 3.2 8.0 0.00 3.28 0.69 95 1008.9
20260506101536 6 331 3.2 6.4 0.03 3.28 0.69 95 1008.6
20260506100038 6 343 0.0 1.6 0.05 3.28 0.69 95 1007.7
20260506094539 6 0 0.0 1.6 0.05 3.28 0.69 95 1007.9
20260506093037 6 306 3.2 12.9 0.08 3.28 0.69 95 1008.8
20260506091537 6 328 4.8 11.3 0.08 3.25 0.66 95 1009.0
20260506090044 7 303 4.8 12.9 0.13 3.23 0.64 94 1008.5
20260506084541 7 324 6.4 12.9 0.20 3.23 0.64 95 1008.2
20260506083042 7 299 1.6 8.0 0.23 3.20 0.61 95 1008.1
20260506081540 7 296 0.0 3.2 0.23 3.17 0.58 95 1008.6
20260506073043 7 311 3.2 6.4 0.10 2.95 0.38 95 1008.5
20260506071541 7 347 0.0 6.4 0.05 2.92 0.33 95 1008.2
20260506061548 7 304 0.0 3.2 0.13 2.90 0.28 95 1008.5
20260506044546 7 328 0.0 4.8 0.13 2.67 0.08 94 1009.0
20260506043041 7 337 1.6 4.8 0.13 2.64 0.05 94 1009.1
20260506041536 7 333 1.6 8.0 0.15 2.64 0.03 95 1009.2
20260506040043 8 14 1.6 8.0 0.20 2.62 0.00 95 1009.3
20260506034541 8 354 4.8 9.7 0.25 2.57 2.57 95 1009.6
20260506033041 8 15 3.2 8.0 0.33 2.54 2.54 95 1009.7
20260506031546 8 344 1.6 4.8 0.41 2.49 2.49 95 1009.6
20260506030036 8 354 0.0 6.4 0.46 2.41 2.41 95 1009.7
20260506024549 8 0 0.0 1.6 0.46 2.31 2.31 95 1009.7
20260506023039 8 328 1.6 6.4 0.41 2.18 2.18 95 1009.1
20260506021551 8 299 1.6 4.8 0.33 2.08 2.08 95 1009.2
20260506020037 8 340 0.0 3.2 0.23 1.96 1.96 95 1008.8
20260506014535 8 0 0.0 1.6 0.15 1.85 1.85 95 1008.8
20260506013036 8 0 0.0 1.6 0.15 1.78 1.78 95 1008.9
20260506011539 8 7 1.6 4.8 0.23 1.75 1.75 95 1008.7
20260506010039 8 2 0.0 6.4 0.25 1.73 1.73 95 1008.6
20260506004537 8 105 1.6 8.0 0.23 1.70 1.70 95 1008.3
20260506003037 8 0 0.0 3.2 0.15 1.63 1.63 95 1008.3
20260506001540 9 39 0.0 1.6 0.08 1.52 1.52 95 1008.3
20260506000039 8 338 1.6 6.4 0.08 1.47 1.47 94 1008.3
20260505234535 9 63 0.0 4.8 0.23 1.47 1.47 95 1008.2
20260505233039 8 25 0.0 8.0 0.38 1.47 1.47 95 1008.2
20260505231548 9 327 1.6 8.0 0.38 1.45 1.45 94 1008.8
20260505230037 9 0 0.0 3.2 0.36 1.37 1.37 94 1008.9
20260505224537 9 319 6.4 12.9 0.30 1.22 1.22 94 1009.1
20260505223037 10 22 6.4 14.5 0.30 1.09 1.09 93 1008.6
20260505221537 10 338 0.0 6.4 0.36 1.07 1.07 94 1008.7
20260505220041 10 351 1.6 8.0 0.43 1.02 1.02 94 1008.4
20260505214600 10 31 1.6 9.7 0.53 0.91 0.91 93 1008.3
20260505213038 11 6 3.2 12.9 0.48 0.79 0.79 92 1008.3
20260505211535 13 314 4.8 9.7 0.48 0.71 0.71 90 1008.3
20260505210039 13 0 0.0 8.0 0.46 0.56 0.56 92 1008.0
20260505204537 13 251 0.0 3.2 0.28 0.38 0.38 92 1008.1
20260505203037 13 0 0.0 4.8 0.28 0.30 0.30 91 1008.0
20260505201536 13 285 0.0 4.8 0.18 0.20 0.20 90 1008.0
20260505200043 13 0 0.0 3.2 0.08 0.10 0.10 89 1007.9
20260505194532 14 248 0.0 3.2 0.08 0.10 0.10 87 1008.2
20260505193035 15 310 3.2 11.3 0.00 0.03 0.03 83 1008.3
20260505191543 16 293 3.2 11.3 0.00 0.03 0.03 79 1008.1
20260505190040 17 224 1.6 14.5 0.00 0.03 0.03 73 1008.1
20260505184537 17 247 1.6 8.0 0.00 0.03 0.03 71 1008.1
20260505183050 17 224 1.6 16.1 0.00 0.03 0.03 70 1008.3
20260505181535 17 224 6.4 19.3 0.00 0.03 0.03 69 1008.2
20260505180046 17 223 6.4 12.9 0.00 0.03 0.03 69 1008.1
20260505174545 17 151 3.2 17.7 0.00 0.03 0.03 69 1007.9
20260505173037 17 13 6.4 22.5 0.00 0.03 0.03 67 1008.1
20260505171538 18 261 6.4 20.9 0.00 0.03 0.03 66 1007.8
20260505170036 18 256 9.7 22.5 0.00 0.03 0.03 65 1007.9
20260505164535 18 274 4.8 29.0 0.00 0.03 0.03 64 1007.8
20260505163038 18 248 3.2 16.1 0.00 0.03 0.03 63 1007.7
20260505161537 18 245 8.0 19.3 0.00 0.03 0.03 62 1007.7
20260505153040 19 256 8.0 17.7 0.00 0.03 0.03 60 1006.6
20260505151538 19 208 8.0 27.4 0.00 0.03 0.03 60 1006.3